Regional Weather Roundup
Issued by NWS

Home | Current Version | Previous Version | Graphics & Text | Print | Product List | Glossary On
Versions: 1 2 3 4 5 6 7 8 9 10 11 12 13 14 15 16 17 18 19 20 21 22 23 24 25 26 27 28 29 30 31 32 33 34 35 36 37 38 39 40 41 42 43 44 45 46 47 48 49 50
000
ASUS43 KTOP 212308
RWRKS

WEATHER ROUNDUP FOR KANSAS
NATIONAL WEATHER SERVICE GOODLAND KS
600 PM CDT SAT OCT 21 2017

NOTE:  "FAIR" INDICATES FEW OR NO CLOUDS BELOW 12,000 FEET WITH NO
SIGNIFICANT WEATHER AND/OR OBSTRUCTIONS TO VISIBILITY.

KSZ001>006-013>018-027>032-041>047-220000-
NORTHWEST KANSAS

CITY           SKY/WX    TMP DP  RH WIND       PRES   REMARKS
GOODLAND       PTCLDY    59  18  20 NW17G25   30.00R
HAYS           MOCLDY    60  38  43 N16       29.94R
HILL CITY      CLEAR     62  35  36 N7        29.96R
RUSSELL        CLEAR     60  41  49 N20G30    29.91R
$$

KSZ061>065-074>080-084>089-220000-
SOUTHWEST KANSAS

CITY           SKY/WX    TMP DP  RH WIND       PRES   REMARKS
DODGE CITY     PTCLDY    58  31  35 N15       29.96R
ELKHART          N/A     60  26  27 N13         N/A
GARDEN CITY    PTCLDY    60  28  29 N14       29.98R
GREAT BEND     PTCLDY    62  41  46 NW17G29   29.91R
LIBERAL        CLOUDY    61  31  32 N20       29.99R
PRATT          CLOUDY    65  37  35 N24G30    29.87R
$$

KSZ066>073-081>083-090>101-220000-
SOUTHEAST KANSAS

CITY           SKY/WX    TMP DP  RH WIND       PRES   REMARKS
CHANUTE        CLOUDY    76  64  66 S16       29.80S
COFFEYVILLE    CLOUDY    76  64  66 S17G25    29.81S
HUTCHINSON     CLOUDY    69  41  36 N13       29.83R
MEDICINE LODGE   N/A     68  41  37 N13G25    29.83S
NEWTON         TSTM      61  50  67 N16       29.84R
PARSONS        CLOUDY    76  64  66 S9        29.82S
WICHITA INTL   LGT RAIN  61  59  93 E8        29.80S
WICHITA JABRA  TSTM      59  58  96 NE5       29.81F
WICHITA MCCONL TSTM      59  55  88 NE7       29.81S
WINFIELD       CLOUDY    69  62  78 NW13      29.80R
$$

KSZ007>012-019>026-033>040-048>060-102>105-220000-
NORTHEAST KANSAS

CITY           SKY/WX    TMP DP  RH WIND       PRES   REMARKS
CONCORDIA      CLOUDY    63  42  46 N14       29.90R
EMPORIA        TSTM      57  55  93 NE7       29.79F
LAWRENCE       CLOUDY    72  64  76 W14G21    29.81R THUNDER
MANHATTAN      CLOUDY    66  47  50 N8        29.84R
MARYSVILLE     CLOUDY    61  43  51 NW17G25   29.87R
OLATHE IND     CLOUDY    74  64  71 S10       29.80F
OLATHE EXE     CLOUDY    72  65  78 S12       29.80F
SALINA         CLOUDY    68  44  42 N20       29.87R
TOPEKA BILLARD TSTM      63  62  97 W5        29.78F
TOPEKA FORBES  TSTM      63  61  93 SW7       29.82R
$$




USA.gov is the U.S. government's official web portal to all federal, state and local government web resources and services.